Simultaneous Nadir Overpasses (SNOs) Predictions

Prediction of SNOs over PacNW region [( 10.00, 139.50) to ( 22.70, 165.60)] between AQUA and NPP Satellites:

Table of predicted SNOs over PacNW region for the next 30.0 days since TLE Epoch: 6/8/2013
Index Date (AQUA) Time (AQUA) AQUA Lat,Lon Date (NPP) Time (NPP) NPP Lat,Lon Distance(km) Time Diff (sec)
1 06/14/2013 15:10:19 22.59, 159.81 06/14/2013 15:10:42 23.19, 157.19 276.57 23
2 06/22/2013 15:59:35 22.62, 147.49 06/22/2013 16:01:25 23.27, 144.55 309.82 110
3 06/30/2013 15:09:55 22.62, 159.89 06/30/2013 15:10:39 23.21, 157.25 278.99 44
4 07/03/2013 03:31:41 22.68, 147.59 07/03/2013 03:28:11 27.17, 144.60 583.44 210




NCC Satellite Simultaneous Nadir Overpasses (SNOs) Prediction Service
